ATLAS 5 CENTAUR DEB, 44107

Orbit data source: Space-Track

ATLAS 5 CENTAUR DEB, 44107 is space debris in HEO originally from a launch on Wed, 17 Sep 2014 UTC launched from the Air Force Eastern Test Range (AFETR). Debris objects in space refer to the collection of defunct objects orbiting the Earth. Examples of debris include non-operational satellites, rocket bodies, and fragments generated from explosions, collisions, or faulty payload assembly.

Loading next visibility...
Identifier
44107, 2014-055CC
Orbit
HEO
Country
Flag of USUS
Related business
Flag of USUnited Launch Alliance/Lockheed Martin (US)
Manufacturer
Unknown
Mission
Spacecraft
Bus & Motor
Unknown
Mass
Unknown
Launch date (UTC)
2014-09-17 (12 years ago)
Launch vehicle
Unknown
Launch site
Air Force Eastern Test Range (AFETR)
Object type
Payload
Rocket body
Debris
Shape & HBR
Unknown shape, 1.1 m
Radar Cross Section
RCS unknown

Expand to show TLE details & history
Last TLE update: 4 days ago

TLE from 4 days ago
0 ATLAS 5 CENTAUR DEB
1 44107U 14055CC  26116.89926390 -.00000032  00000-0  00000-0 0  9999
2 44107  19.1471 194.6539 4759793  77.7082 329.9387  1.75837491 45637
Epoch: 2026-04-26T21:34Z
TLE epoch observation values (Epoch: 2026-04-26T21:34:56.400Z)
Latitude
0.00005°
Longitude
16.0945°
Altitude
13,973.578 km
Speed
5.042 km/s
True Right ascension
12h 58m 54s
True Declination
0° 00' 00"
Sunlit
Object was in daylight at epoch
Visualization orbit readout
Latitude
Unknown
Longitude
Unknown
Altitude
Unknown
Speed
Unknown
Apparent Right ascension
Unknown
Apparent Declination
Unknown
Sunlit
N/A
Visualization observer readout
Local Sidereal Time
22:20:52
Azimuth
Unknown
Elevation
Unknown
Doppler factor
Unknown
Orbital elements
Apogee altitude
36,421.108 km
Perigee altitude
8,816.988 km
Semi-major axis
28,997.185 km
Eccentricity
0.47598
Inclination
19.1471°
RAAN
194.6539°
Arg. of periapsis
77.7082°
True anomaly
282.18925°
Mean anomaly
329.9387°
Eccentric anomaly
308.63611°
Mean motion
0.43955 °/min
Orbital period
819.02 mins
BSTAR
0
Loading maneuver chart data...
Computing Atmospheric mass density...

Documentation

Showing up to 5 results
|